Location: Moena
(46.3667°N, 11.6500°E)
Time: 17:41:28
(UTC+00:00)

OBJECT-B - Pass Details

Date: 03 March 2021
Orbit: 414 x 427 km, 97.0° (Epoch: 11 April)

Event Time Altitude Azimuth Distance (km) Brightness Sun altitude
Exits shadow 19:38:15 22° 311° (NW) 971 3.2 -27.3°
Drops below altitude 10° 19:39:48 10° 330° (NNW) 1,514 4.2 -27.5°
Sets 19:41:56 0° 340° (NNW) 2,381 5.1 -27.8°
